This is the latest recevied weather packets stored in our database for station/object S53BL-10. If no packets are shown the sender has not sent any weather packets the latest 10 day(s).
| Time | Temp. | Humidity | Pressure | Rain* | Wind** | Luminosity | Snow |
|---|---|---|---|---|---|---|---|
| 1777597650 | 3.89° C | 67% | 1024.6 hPa | - | - | - | - |
| 1777596749 | 3.89° C | 67% | 1024.6 hPa | - | - | - | - |
| 1777595848 | 3.89° C | 65% | 1024.7 hPa | - | - | - | - |
| 1777594947 | 4.44° C | 63% | 1024.6 hPa | - | - | - | - |
| 1777594046 | 4.44° C | 63% | 1024.5 hPa | - | - | - | - |
| 1777593145 | 5° C | 62% | 1024.7 hPa | - | - | - | - |
| 1777592245 | 5° C | 61% | 1024.6 hPa | - | - | - | - |
| 1777591344 | 5° C | 60% | 1024.7 hPa | - | - | - | - |
| 1777590443 | 5.56° C | 60% | 1024.7 hPa | - | - | - | - |
| 1777589542 | 5.56° C | 59% | 1024.8 hPa | - | - | - | - |
| 1777588642 | 6.11° C | 58% | 1024.9 hPa | - | - | - | - |
| 1777587741 | 6.11° C | 55% | 1025 hPa | - | - | - | - |
| 1777586840 | 6.67° C | 55% | 1025 hPa | - | - | - | - |
| 1777585939 | 6.67° C | 52% | 1024.9 hPa | - | - | - | - |
| 1777585039 | 6.67° C | 51% | 1024.9 hPa | - | - | - | - |
| 1777584138 | 7.22° C | 47% | 1024.8 hPa | - | - | - | - |
| 1777583236 | 7.78° C | 44% | 1024.7 hPa | - | - | - | - |
| 1777582336 | 8.33° C | 43% | 1024.5 hPa | - | - | - | - |
| 1777581435 | 8.33° C | 42% | 1024.5 hPa | - | - | - | - |
| 1777580534 | 8.89° C | 42% | 1024.3 hPa | - | - | - | - |
| 1777579633 | 8.89° C | 41% | 1024.1 hPa | - | - | - | - |
| 1777578732 | 8.89° C | 40% | 1023.9 hPa | - | - | - | - |
| 1777577831 | 9.44° C | 40% | 1023.7 hPa | - | - | - | - |
| 1777576931 | 9.44° C | 38% | 1023.6 hPa | - | - | - | - |
| 1777576030 | 10° C | 37% | 1023.4 hPa | - | - | - | - |
* Rain since midnight (hover to see other rain measurements)
** Current wind speed in m/s (hover to see current wind gust speed)